Location: Cieszkowy
(50.3290°N, 20.5336°E)
Time: 00:24:51
(UTC+00:00)

Cosmos 1455 Rocket - Pass Details

Date: 15 June 2024
Orbit: 602 x 625 km, 82.5° (Epoch: 18 July)

Event Time Altitude Azimuth Distance (km) Brightness Sun altitude
Rises 00:28:40 0° 340° (NNW) 2,919 7.2 -12.4°
Reaches altitude 10° 00:31:11 10° 328° (NNW) 2,009 6.1 -12.2°
Maximum altitude 00:34:51 26° 272° (W) 1,246 4.4 -12.0°
Enters shadow 00:37:24 16° 226° (SW) 1,653 4.7 -11.8°
